{"data":{"norad_id":53406,"epoch":"2026-09-20T04:02:13.496064Z","epoch_age_seconds":104025,"freshness":"FRESH","line1":"1 53406U 22097U   26263.16821176  .00000203  00000+0  18299-4 0  9996","line2":"2 53406  53.1608 308.3493 0001130  64.7941 295.3177 15.31701727228188","mean_motion":15.31701727,"eccentricity":0.000113,"inclination_deg":53.1608,"raan_deg":308.3493,"arg_perigee_deg":64.7941,"mean_anomaly_deg":295.3177,"bstar":1.8299e-5,"rev_number":22818,"period_min":94.013081960833,"perigee_km":469.96092461462,"apogee_km":471.50876965208,"semimajor_km":6848.8718471334,"source":"CELESTRAK","updated_at":"2026-09-20T09:00:40.226717Z"}}